User: anonymous   Login
Location: Zagreb
(45.8000°N, 16.0000°E)
Time: 00:16:43
(UTC+02:00)
Language:

Explorer 11/Cluster Stage 4 - Orbit

View from above orbital plane
View from above orbital plane
View from above satellite
View from above satellite

Ground track
Ground track

The orbit data is extracted from the following two-line orbital elements,

1   107U 61013A   20224.21405472 +.00000372 +00000-0 +26979-4 0  9993
2   107 028.7894 232.1784 0546545 239.8418 114.6913 14.08979579973956
Epoch (UTC): 11 August 2020 05:08:14
Eccentricity: 0.0546545
inclination: 28.7894°
perigee height: 467 km
apogee height: 1258 km
right ascension of ascending node: 232.1784°
argument of perigee: 239.8418°
revolutions per day: 14.08979579
mean anomaly at epoch: 114.6913°
orbit number at epoch: 97395

The dashed part of the orbit path shows where the satellite is in the earth's shadow,  

DLR